GW1980 Weather Reports


Display with metric or nautical units.
time (UTC)temp
F
wind
direction
speed
MPH
gust
MPH
rain 1hr
in
rain 24hr
in
rain mn
in
humidity
%
barometer
mb
20260506091447 59 46 2.0 7.0 0.00 0.00 0.00 83 1010.6
20260506085952 59 49 5.0 9.0 0.00 0.00 0.00 83 1010.8
20260506084447 59 49 4.0 8.0 0.00 0.00 0.00 83 1010.8
20260506082949 59 58 4.0 8.0 0.00 0.00 0.00 84 1010.5
20260506081447 60 25 3.0 7.0 0.00 0.00 0.00 83 1010.4
20260506072950 60 358 3.0 7.0 0.00 0.00 0.00 83 1010.2
20260506071447 60 49 0.0 7.0 0.00 0.00 0.00 84 1010.1
20260506061447 61 39 3.0 10.0 0.00 0.00 0.00 81 1009.9
20260506044447 64 4 3.0 9.0 0.00 0.00 0.00 77 1009.9
20260506042951 65 7 3.0 7.0 0.00 0.00 0.00 76 1009.8
20260506041447 66 30 5.0 9.0 0.00 0.00 0.00 75 1009.8
20260506035952 66 7 5.0 10.0 0.00 0.00 0.00 75 1009.9
20260506034447 66 3 5.0 10.0 0.00 0.00 0.00 74 1009.9
20260506032950 67 34 6.0 13.0 0.00 0.00 0.00 73 1009.5
20260506031447 67 25 5.0 10.0 0.00 0.00 0.00 73 1008.9
20260506025953 68 47 6.0 12.0 0.00 0.00 0.00 72 1008.4
20260506024447 69 46 4.0 9.0 0.00 0.00 0.00 72 1008.1
20260506022950 70 85 5.0 11.0 0.00 0.00 0.00 72 1007.7
20260506021448 71 40 7.0 12.0 0.00 0.00 0.00 71 1007.3
20260506015952 71 58 6.0 10.0 0.00 0.00 0.00 70 1007.3
20260506014447 71 16 5.0 11.0 0.00 0.00 0.00 70 1006.9
20260506011448 73 16 3.0 7.0 0.00 0.00 0.00 68 1006.2
20260506002950 76 68 7.0 12.0 0.00 0.00 0.00 65 1005.4
20260506001447 77 46 7.0 12.0 0.00 0.00 0.00 63 1005.4
20260505235952 79 41 7.0 12.0 0.00 0.00 0.00 61 1005.3
20260505234447 83 65 6.0 13.0 0.00 0.00 0.00 60 1004.9
20260505225955 93 295 1.0 6.0 0.00 0.00 0.00 45 1003.8
20260505222950 92 275 1.0 5.0 0.00 0.00 0.00 46 1003.8
20260505221448 93 281 2.0 8.0 0.00 0.00 0.00 42 1003.8
20260505215952 92 204 0.0 6.0 0.00 0.00 0.00 45 1003.7
20260505212950 93 283 0.0 4.0 0.00 0.00 0.00 43 1003.9
20260505211447 92 266 2.0 5.0 0.00 0.00 0.00 44 1004.1
20260505205953 91 252 2.0 6.0 0.00 0.00 0.00 46 1004.3
20260505204447 92 187 1.0 5.0 0.00 0.00 0.00 47 1004.6
20260505202950 91 322 2.0 11.0 0.00 0.00 0.00 50 1004.8
20260505201447 90 236 4.0 10.0 0.00 0.00 0.00 48 1004.8
20260505195953 90 307 3.0 9.0 0.00 0.00 0.00 48 1005.0
20260505194448 89 294 4.0 9.0 0.00 0.00 0.00 49 1005.2
20260505192949 89 255 4.0 8.0 0.00 0.00 0.00 51 1005.2
20260505185954 87 264 5.0 10.0 0.00 0.00 0.00 51 1005.3
20260505184447 87 262 6.0 11.0 0.00 0.00 0.00 55 1005.5
20260505182951 87 271 3.0 11.0 0.00 0.00 0.00 57 1005.8
20260505174449 83 256 5.0 11.0 0.00 0.00 0.00 65 1005.9
20260505172951 83 316 7.0 13.0 0.00 0.00 0.00 64 1006.1
20260505171448 83 189 3.0 8.0 0.00 0.00 0.00 67 1006.1
20260505165953 82 170 4.0 11.0 0.00 0.00 0.00 69 1006.1
20260505164447 81 205 3.0 10.0 0.00 0.00 0.00 68 1005.8
20260505162950 80 218 3.0 10.0 0.00 0.00 0.00 70 1005.9
20260505161448 80 208 4.0 13.0 0.00 0.00 0.00 71 1005.7
20260505152950 79 243 4.0 12.0 0.00 0.00 0.00 74 1005.8
20260505151448 79 318 3.0 8.0 0.00 0.00 0.00 76 1006.1
20260505124449 70 195 2.0 10.0 0.00 0.00 0.00 89 1005.9
20260505122950 70 203 4.0 10.0 0.00 0.00 0.00 89 1005.5
20260505121449 69 271 3.0 11.0 0.00 0.00 0.00 90 1005.3
20260505115953 69 149 3.0 10.0 0.00 0.00 0.00 90 1005.0
20260505114448 69 155 3.0 10.0 0.00 0.00 0.00 90 1004.8
20260505112951 69 163 3.0 11.0 0.00 0.00 0.00 90 1004.6
20260505111448 69 166 3.0 13.0 0.00 0.00 0.00 90 1004.7
20260505095952 69 198 3.0 9.0 0.00 0.00 0.00 89 1004.8
20260505094447 69 191 3.0 9.0 0.00 0.00 0.00 89 1004.8
20260505092950 70 174 4.0 9.0 0.00 0.00 0.00 88 1004.8